Regional Weather Roundup
Issued by NWS Portland, ME

Current Version | Previous Version | Text Only | Print | Product List | Glossary Off
Versions: 1 2 3 4 5 6 7 8 9 10 11 12 13 14 15 16 17 18 19 20 21 22 23 24 25 26 27 28 29 30 31 32 33 34 35 36 37 38 39 40 41 42 43 44 45 46 47 48 49 50
000 ASUS41 KGYX 011905 RWRGYX WEATHER ROUNDUP FOR MAINE AND NEW HAMPSHIRE NATIONAL WEATHER SERVICE GRAY ME 200 PM EST WED MAR 01 2017 MEZ002-005-006-010-012-015-018-020-021-024-026-027-029-012000- MAINE CITY SKY/WX TMP DP RH WIND PRES REMARKS PORTLAND FOG 47 46 97 S7 29.44F VSB 1/4 SANFORD FOG 48 48 100 CALM 29.43F VSB 1/4 BAR HARBOR LGT RAIN 45 45 100 S13G24 29.49F VSB 1/4 WISCASSET LGT RAIN 46 45 96 SE5 29.48F VSB 1/4 ROCKLAND LGT RAIN 45 45 100 SW10 29.49F VSB 1/4 FRYEBURG FOG 40 40 100 CALM 29.42F VSB 1/4 LEWISTONAUBURN FOG 43 42 97 CALM 29.43F VSB<1/4 AUGUSTA LGT RAIN 45 44 97 S10G17 29.44F VSB<1/4 WATERVILLE LGT RAIN 46 46 100 S6 29.40F VSB<1/4 BANGOR FOG 45 45 100 S13 29.46F VSB 1/8 GREENVILLE N/A 37 37 100 VRB3 29.36F MILLINOCKET CLOUDY 43 42 97 SW5 29.42F FOG HOULTON LGT RAIN 44 44 100 S7 29.39F PRESQUE ISLE LGT RAIN 39 38 96 SE6 29.39F FRENCHVILLE LGT RAIN 36 34 92 E5 29.37F FOG CARIBOU CLOUDY 39 37 92 SE5 29.37F FOG $$ NHZ002-005-008-009-011-012-014-012000- NEW HAMPSHIRE CITY SKY/WX TMP DP RH WIND PRES REMARKS PORTSMOUTH CLOUDY 58 53 81 SE12 29.43F ROCHESTER CLOUDY 55 53 93 S3 29.43F NASHUA CLOUDY 65 56 72 VRB5 29.44F MANCHESTER CLOUDY 64 52 64 S20 29.42F CONCORD CLOUDY 52 47 83 CALM 29.42F LACONIA CLOUDY 41 41 100 CALM 29.42F PLYMOUTH FOG 39 39 99 E3 29.43F VSB 1/4 BERLIN PTSUNNY 50 44 80 CALM 29.34F WHITEFIELD CLOUDY 57 49 74 NW6 29.34F JAFFREY CLOUDY 58 53 84 S21G29 29.44F KEENE CLOUDY 63 54 72 S22G29 29.41F LEBANON CLOUDY 60 53 77 S14 29.36F MT WASHINGTON FOG 37 37 100 SW71G82 N/A VSB 1/16 $$ VTZ005-007-008-012000- VERMONT CITY SKY/WX TMP DP RH WIND PRES REMARKS ST JOHNSBURY N/A 51 48 89 MISG 29.32F MONTPELIER CLOUDY 53 50 89 S9 29.36F BURLINGTON CLOUDY 61 53 75 S24G33 29.28F $$ MAZ007-012-024-CTZ003-RIZ002-NYZ038-NYZ072-012000- SOUTHERN NEW ENGLAND AND NY CITY SKY/WX TMP DP RH WIND PRES REMARKS BOSTON CLOUDY 59 54 83 SW18G26 29.48F WORCESTER CLOUDY 57 52 83 SW23G31 29.46F NANTUCKET LGT RAIN 48 46 93 SW14 29.64F VSB 1/4 PROVIDENCE LGT RAIN 54 52 93 S17 29.53F HARTFORD CLOUDY 57 55 93 S12 29.50F ALBANY CLOUDY 63 53 70 S16G33 29.38F NEW YORK CITY CLOUDY 61 55 81 S12 29.56F $$ ANZ081-ANZ082-ANZ150-NHZ014-MEZ023>029-012000- COASTAL MARINE OBSERVATIONS STATION/POSITION TIME TEMP WIND PRES WAVE AIR SEA DIR/SP/G HT/PER (UTC) (F) (DEG/KT/KT) (MB) (FT/S) MOUNT DESERT ROC 1900 44 998.9F MATINICUS ROCK 1800 45 190/ 22/ 24 999.6F ISLE OF SHOALS 1800 52 170/ 22/ 23 998.4F JEFFREYS LEDGE 1836 43 N/A 4/ 5 CASHES LEDGE BUO 1750 46 42 1000.8 4/ 5 GEORGES BANK BUO 1750 48 43 1008.5 4/ 8 $$ .............KEY.............. WCI - WIND CHILL TC - TEMPERATURE IN CELSIUS VSB - VISIBILITY IN MILES HX - HEAT INDEX FAIR- INDICATES FEW OR NO CLOUDS BELOW 12,000 FT, WITH NO SIGNIFICANT WEATHER AND/OR OBSTRUCTIONS TO VISIBILITY.

USA.gov is the U.S. government's official web portal to all federal, state and local government web resources and services.